www.pogodaiklimat.ru

Погода и климат >> Архив погоды >> Россия >> Нижегородская область >> Шахунья


ПОГОДА в Шахунье

  • Прогноз погоды в Шахунье
  • Монитор погоды в Шахунье

АРХИВ ПОГОДЫ в Шахунье

Время (UTC), дата Ветер
(напр.,м/с)
 
Видим.   Явления Облачность Т
(С)
Тd
(С)
f
(%)
Тe
(С)
Тes
(С)
Комфортность P
(гПа)
Po
(гПа)
Тmin
(С)
Tmax
(С)
R
(мм)
R24
(мм)
S
(см)
06 17.02 Ю 6-9
{9}
20 км слаб. снег 10/10 300 м
[St]
-3.4 -4.8 90 -11 -11 990.9 969.1
09 17.02 ЮЗ 5-7
{9}
4000 м слаб. снег 10/0 200 м
[As op]
-2.2 -3.4 91 -9 -9 987.2 965.7
12 17.02 ЮЗ 4-6
{8}
2000 м снег 10/0 200 м
[As op]
-1.1 -1.5 97 -7 -7 985.5 964.0
15 17.02 З 3-5
{7}
4000 м {снег} 10/10 300 м
[St]
-0.8 -2.1 91 -6 -6 985.5 964.1 -0.8 2
18 17.02 З 2-5
{7}
4000 м {снег} 10/0
[Ac As]
-1.2 -2.9 88 -5 -5 985.1 963.6
21 17.02 З 4-6
{8}
4000 м слаб. снег 10/0 300 м
[As op]
-1.3 -2.3 93 -7 -7 985.4 963.9
00 18.02 СЗ 5-9
{9}
4000 м слаб. снег 10/0 200 м
[As op]
-1.1 -2.1 93 -8 -8 987.0 965.5
03 18.02 СЗ 7-12
{15}
2000 м слаб. снег {метель} 10/0 300 м
[As op]
-1.8 -2.9 92 -10 -10 990.4 968.8 -1.8 0.8 50
06 18.02 СЗ 6-13
{15}
4000 м слаб. снег {метель} 10/0 300 м
[As op]
-3.8 -6.4 82 -11 -11 995.2 973.3
09 18.02 С 8-15
{16}
20 км слаб. снег {метель} 10/8 600 м
[Sc Ac As]
-5.3 -9.9 70 -14 -14 1000.8 978.6
12 18.02 С 8-15
{18}
20 км сильный позёмок 8/6 600 м
[Sc Ac As]
-6.6 -12.8 61 -15 -15 1005.1 982.8
15 18.02 С 8-14
{15}
4000 м позёмок 3/3 600 м
[Sc]
-8.1 -16.8 50 -17 -17 1009.4 986.9 -1.8 0.2
18 18.02 С 6-11
{16}
4000 м позёмок 3/0
[Ci sp]
-9.6 -17.3 53 -18 -18 1012.8 990.1
21 18.02 С 5-8
{14}
4000 м позёмок ясно -10.6 -15.9 65 -18 -18 1015.2 992.4
00 19.02 СЗ 3-5
{8}
4000 м позёмок ясно -12.8 -15.5 80 -19 -19 1016.8 993.6
03 19.02 З 1-2
{5}
4000 м {метель} ясно -17.3 -19.2 85 -20 -20 1017.9 994.4 -17.3 48
06 19.02 З 1-2
{2}
50 км {метель} 8/0
[Cs]
-14.8 -16.1 90 -17 -16 1017.2 993.9 -18.8
09 19.02 Ю 4-7
{7}
50 км 10/0
[Ac As]
-10.5 -14.1 75 -17 -17 1013.9 991.1
12 19.02 Ю 6-9
{10}
50 км слаб. снег 10/0
[Ac As]
-8.7 -10.6 86 -17 -17 1008.9 986.4
15 19.02 ЮЗ 4-6
{9}
4000 м {снег} 10/0
[Ac As]
-8.2 -9.6 90 -15 -15 1007.8 985.3 -8.2 0.6
18 19.02 ЮЗ 3-5
{7}
4000 м {снег} 10/0
[Ac As]
-6.8 -8.4 88 -13 -13 1007.0 984.6
21 19.02 Ю 2-3
{5}
4000 м 10/0
[Ac As]
-6.0 -7.9 86 -10 -10 1006.5 984.2
00 20.02 Ю 4-5
{5}
4000 м 10/0
[Ac As]
-5.6 -7.0 90 -12 -12 1005.5 983.2
03 20.02 Ю 4-5
{6}
4000 м 10/0
[Ac As]
-4.6 -6.6 86 -11 -11 1003.0 980.9 -8.2 48
06 20.02 Ю 5-8
{8}
50 км 9/0
[Ac As]
-3.9 -7.6 75 -11 -10 1000.9 978.8
09 20.02 Ю 6-9
{10}
50 км 10/0
[Ac und]
-2.9 -8.7 64 -10 -9 998.7 976.9
12 20.02 Ю 7-10
{11}
50 км позёмок 10/6 600 м
[Sc Ac und]
-3.1 -7.0 74 -11 -11 997.8 976.0
15 20.02 Ю 6-8
{11}
4000 м слаб. снег {метель} 10/10 300 м
[St]
-3.5 -5.3 87 -11 -11 997.6 975.7 -2.9 0.0
18 20.02 Ю 5-7
{9}
4000 м слаб. снег {метель} 10/10 200 м
[St]
-2.7 -3.7 93 -10 -10 997.1 975.3
21 20.02 Ю 5-7
{9}
4000 м слаб. снег 10/10 200 м
[St]
-1.8 -2.9 92 -8 -8 996.6 974.9
00 21.02 Ю 5-7
{8}
4000 м слаб. снег 10/10 200 м
[St]
-1.1 -2.4 91 -8 -8 995.7 974.0
03 21.02 Ю 5-7
{8}
4000 м слаб. снег 10/10 200 м
[St]
-0.9 -2.2 91 -7 -7 995.4 973.8 -3.5 0.3 48
06 21.02 Ю 4-6
{8}
50 км {снег} 10/10 200 м
[St]
-1.0 -2.3 91 -7 -7 995.8 974.1
09 21.02 Ю 4-6
{7}
20 км 10/10 200 м
[St]
-0.4 -1.0 96 -6 -6 996.1 974.5
12 21.02 Ю 4-5
{7}
20 км 10/10 600 м
[Sc]
0.0 -1.7 88 -6 -6 996.3 974.7
15 21.02 ЮВ 3-5
{6}
4000 м {снег} 10/10 300 м
[St]
-0.2 -0.8 96 -5 -5 997.1 975.5 +0.1 0.7
18 21.02 ЮВ 3-4
{5}
4000 м слаб. снег 10/0 600 м
[As op]
-0.6 -1.2 96 -6 -6 997.9 976.3
21 21.02 В 3-4
{4}
4000 м слаб. снег 10/10 200 м
[Frnb Ns]
-0.8 -1.5 95 -6 -6 998.3 976.7
00 22.02 СВ 2-3
{4}
4000 м слаб. снег 10/10 200 м
[Frnb Ns]
-0.9 -1.6 95 -5 -5 999.2 977.5
03 22.02 С 5-9
{9}
4000 м слаб. снег 10/10 200 м
[Frnb Ns]
-5.7 -6.8 92 -13 -13 1001.7 979.5 -5.9 2 48
06 22.02 С 5-10
{11}
10 км слаб. снег {метель} 10/0 300 м
[As op]
-7.5 -9.2 88 -15 -15 1004.2 981.9 -7.5
09 22.02 С 6-11
{12}
10 км слаб. снег {метель} 10/0 600 м
[As op]
-7.7 -10.8 78 -16 -16 1007.0 984.6
12 22.02 С 6-10
{12}
10 км позёмок {снег} 10/0 600 м
[As op]
-8.9 -11.8 79 -17 -17 1009.9 987.3
15 22.02 С 6-10
{13}
4000 м позёмок {снег} 10/0 300 м
[As op]
-9.6 -12.6 79 -18 -18 1012.9 990.2 -5.7 0.7
18 22.02 С 6-9
{12}
4000 м слаб. снег {метель} 10/0 300 м
[As op]
-10.5 -13.3 80 -19 -19 1016.6 993.7
21 22.02 С 6-9
{12}
4000 м позёмок {снег} 10/10 600 м
[Sc]
-11.4 -13.4 85 -20 -20 1018.6 995.6
00 23.02 С 6-9
{12}
4000 м позёмок {снег} 10/10 300 м
[St]
-12.5 -15.2 80 -21 -21 1021.0 997.8
03 23.02 СЗ 3-6
{10}
4000 м позёмок 6/0
[Ac trans]
-15.2 -17.9 80 -22 -22 1023.1 999.6 -15.2 0.0 48
06 23.02 СЗ 3-6
{6}
50 км {метель} 3/0
[Ci sp]
-16.0 -18.7 80 -23 -22 1024.8 1001.2
09 23.02 СЗ 3-6
{7}
50 км 1/0
[Ci sp]
-10.6 -19.0 50 -16 -14 1025.2 1002.1
12 23.02 З 2-4
{6}
50 км 4/0
[Ci sp]
-8.5 -18.3 45 -13 -11 1024.7 1001.9
15 23.02 З 2-3
{5}
4000 м 9/0
[Ac trans Ci sp]
-10.6 -19.0 50 -15 -15 1024.5 1001.4 -8.5
18 23.02 ЮЗ 4-5
{6}
4000 м 6/0
[Ac trans Ci fib]
-10.4 -17.7 55 -17 -17 1023.3 1000.3
21 23.02 ЮЗ 4-5
{7}
4000 м 6/0
[Ac trans Ci sp]
-12.6 -16.9 70 -20 -20 1022.4 999.2
00 24.02 ЮЗ 3-6
{6}
4000 м 9/0
[Ac trans Ci sp]
-11.2 -14.7 75 -17 -17 1021.5 998.4
03 24.02 ЮЗ 3-5
{7}
4000 м слаб. снег 10/0
[Ac As]
-10.8 -12.8 85 -17 -17 1020.3 997.3 -12.8 0.0 48

 

Местоположение метеостанции Шахунья (Нижегородская область, Россия): широта 57.66 долгота 46.63 высота над уровнем моря 175 м.

В архиве по умолчанию представлена погода в Шахунье за последнюю неделю. Архивные данные за месяц целиком и за предыдущие месяцы, начиная с января 2011 года, Вы можете получить, выбрав интересующий диапазон дат из раскрывающегося списка и нажав кнопку "Ввод!".


*Определитесь, кто Вы:
робот инопланетянин человек

Внимание! Время в таблицах - всемирное. Для получения местного времени необходимо прибавить поправку, которая равна 3 ч.

Смотрите также архив погоды в соседних городах и на ближайших метеорологических станциях:

Погода в Ветлуге (Нижегородская область, Россия) (55 км)
Погода в Шабалино (Кировская область, Россия) (77 км)
Погода в Яранске (Кировская область, Россия) (84 км)
Погода в Санчурске (Кировская область, Россия) (86 км)
Погода в Шарье (Костромская область, Россия) (102 км)
Погода в Красных Баках (Нижегородская область, Россия) (106 км)
Погода в Воскресенском (Нижегородская область, Россия) (119 км)
Погода в Котельниче (Кировская область, Россия) (124 км)
Погода в Мантурово (Костромская область, Россия) (132 км)
Погода в Йошкар-Оле (Марий-Эл, Россия) (134 км)

Пояснения к столбцам:

Ветер - указаны скорость ветра в м/с - средняя за 10 мин, порывы в срок и между сроками (в фигурных скобках) и направление, откуда дует ветер: С - северный, СВ - северо-восточный, В - восточный, ЮВ - юго-восточный, Ю - южный, ЮЗ - юго-западный, З - западный, СЗ - северо-западный.
Видимость - горизонтальная дальность видимости в метрах или километрах. При видимости от 1 до 10 км при отсутствии осадков обычно наблюдается дымка, при ухудшении видимости до 1 км и менее - туман. В сухую погоду видимость может ухудшаться дымом, пылью или мглою.
Явления - указаны атмосферные явления, наблюдавшиеся в срок или в последний час перед сроком; фигурными скобками обозначены явления, наблюдавшиеся между сроками (за 1-3 часа до срока); квадратными скобками обозначены град или гололедные отложения с указанием их диаметра в мм.
Облачность - указаны через наклонную черту общая и нижняя облачность в баллах и высота нижней границы облаков в метрах; квадратными скобками обозначены формы облаков: Ci - перистые, Cs - перисто-слоистые, Cc - перисто-кучевые, Ac - высококучевые, As - высокослоистые, Sc - слоисто-кучевые, Ns - слоисто-дождевые, Cu - кучевые, Cb - кучево-дождевые. Подробнее классификацию облаков см. в Атласе облаков (PDF).
T - Температура воздуха - температура, измеренная на высоте 2 м над землей.
Td - Температура точки росы - температура, при понижении до которой содержащийся в воздухе водяной пар достигнет насыщения.
f - Относительная влажность воздуха - влажноcть воздуха, измеренная на высоте 2 м над землей.
Te - Эффективная температура - температура, которую ощущает одетый по сезону человек в тени. Характеристика душности погоды. При расчете учитывается влияние влажности воздуха и скорости ветра на теплоощущения человека.
Tes - Эффективная температура на солнце - температура, которую ощущает человек, с поправкой на солнечный нагрев. Характеристика знойности погоды. Зависит от высоты солнца над горизонтом, облачности и скорости ветра. Ночью, в пасмурную погоду, а также при ветре 12 м/с и более поправка равна нулю.
P - Атмосферное давление - приведенное к уровню моря атмосферное давление.
Po - Атмосферное давление - измеренное на уровне метеостанции атмосферное давление.
Tmin - Минимальная температура - минимум температуры воздуха на высоте 2 м над землей.
Tmax - Максимальная температура - максимум температуры воздуха на высоте 2 м над землей.
R - Количество осадков - Количество выпавших осадков за период времени, мм. При наведении курсора мыши на число - период времени, за который выпало указанное количество осадков.
R24 - Количество осадков - Количество выпавших осадков за 24 часа, мм.
S - Снежный покров - Высота снежного покрова, см. При наведении курсора мыши на число - состояние снежного покрова и степень покрытия местности в баллах.